TERMEEREN Weather Reports


time (UTC)temp
C
wind
direction
speed
KPH
gust
KPH
rain 1hr
cm
rain 24hr
cm
rain mn
cm
humidity
%
barometer
mb
20260506195420 10 267 1.6 6.4 0.00 1.91 0.18 76 1012.7
20260506194931 10 302 3.2 6.4 0.00 1.91 0.18 75 1012.6
20260506193927 10 337 1.6 6.4 0.00 1.91 0.18 75 1012.5
20260506193441 10 344 1.6 6.4 0.00 1.91 0.18 74 1012.5
20260506192932 11 279 1.6 6.4 0.00 1.91 0.18 74 1012.5
20260506192413 11 17 1.6 6.4 0.00 1.91 0.18 73 1012.3
20260506191927 11 307 1.6 4.8 0.00 1.91 0.18 72 1012.2
20260506191411 11 296 1.6 6.4 0.00 1.91 0.18 71 1012.2
20260506190925 11 322 1.6 3.2 0.00 1.91 0.18 72 1012.1
20260506190427 11 300 0.0 4.8 0.00 1.91 0.18 70 1012.0
20260506185939 11 269 1.6 4.8 0.00 1.91 0.18 70 1011.9
20260506185414 11 310 1.6 6.4 0.00 1.91 0.18 70 1011.8
20260506184925 11 6 1.6 6.4 0.00 1.91 0.18 70 1011.8
20260506184437 11 289 1.6 3.2 0.00 1.91 0.18 69 1011.7
20260506183921 11 273 0.0 3.2 0.00 1.91 0.18 72 1011.6
20260506183433 11 13 0.0 3.2 0.00 1.91 0.18 72 1011.5
20260506182918 12 271 0.0 4.8 0.00 1.91 0.18 72 1011.5
20260506182431 12 286 0.0 4.8 0.00 1.91 0.18 71 1011.4
20260506181942 12 268 0.0 3.2 0.00 1.91 0.18 71 1011.4
20260506181432 12 239 1.6 8.0 0.00 1.91 0.18 71 1011.2
20260506180916 12 330 1.6 8.0 0.00 1.91 0.18 72 1011.2
20260506180422 12 244 3.2 6.4 0.00 1.91 0.18 72 1011.1
20260506175932 12 269 1.6 11.3 0.00 1.91 0.18 73 1011.1
20260506175415 12 9 3.2 11.3 0.00 1.91 0.18 71 1011.0
20260506174927 12 223 0.0 3.2 0.00 1.91 0.18 72 1010.9
20260506174411 12 206 0.0 3.2 0.00 1.91 0.18 72 1010.8
20260506173925 12 206 0.0 1.6 0.00 1.91 0.18 72 1010.7
20260506173436 12 246 0.0 4.8 0.00 1.91 0.18 72 1010.7
20260506172929 12 217 0.0 3.2 0.00 1.91 0.18 72 1010.6
20260506172414 12 217 0.0 1.6 0.00 1.91 0.18 73 1010.6
20260506171922 12 212 0.0 3.2 0.00 1.91 0.18 73 1010.6
20260506171427 12 212 0.0 3.2 0.00 1.91 0.18 72 1010.5
20260506170920 12 219 0.0 4.8 0.00 1.91 0.18 72 1010.5
20260506170426 12 335 0.0 4.8 0.00 1.91 0.18 73 1010.5
20260506165933 12 259 0.0 4.8 0.00 1.91 0.18 74 1010.5
20260506165413 12 200 0.0 4.8 0.00 1.91 0.18 73 1010.4
20260506164934 12 205 1.6 4.8 0.00 1.91 0.18 74 1010.4
20260506164439 12 269 0.0 3.2 0.00 1.91 0.18 75 1010.4
20260506163930 12 292 0.0 3.2 0.00 1.91 0.18 75 1010.3
20260506163425 12 301 1.6 3.2 0.00 1.91 0.18 75 1010.3
20260506162959 12 276 1.6 3.2 0.00 1.91 0.18 76 1010.3
20260506162422 12 285 1.6 3.2 0.00 1.91 0.18 75 1010.3
20260506161914 12 281 1.6 3.2 0.00 1.91 0.18 75 1010.3
20260506161418 12 320 0.0 4.8 0.00 1.91 0.18 76 1010.3
20260506160930 12 302 0.0 4.8 0.00 1.91 0.18 75 1010.3
20260506160413 12 326 0.0 3.2 0.00 1.91 0.18 75 1010.3
20260506155916 12 291 0.0 3.2 0.00 1.91 0.18 74 1010.3
20260506155428 12 319 0.0 6.4 0.00 1.91 0.18 74 1010.3
20260506154921 12 316 1.6 6.4 0.00 1.91 0.18 74 1010.3
20260506154420 12 327 0.0 4.8 0.00 1.91 0.18 73 1010.3
20260506153914 12 315 1.6 6.4 0.00 1.91 0.18 73 1010.3
20260506153446 12 291 1.6 6.4 0.00 1.91 0.18 73 1010.3
20260506152938 12 302 1.6 6.4 0.00 1.91 0.18 72 1010.3
20260506152421 12 300 1.6 8.0 0.00 1.91 0.18 72 1010.3
20260506151935 12 315 1.6 16.1 0.00 1.91 0.18 71 1010.3
20260506151415 13 274 1.6 11.3 0.00 1.91 0.18 71 1010.3
20260506150916 13 194 3.2 11.3 0.00 1.91 0.18 71 1010.2
20260506150417 13 203 3.2 8.0 0.00 1.91 0.18 70 1010.2
20260506145921 13 225 1.6 8.0 0.00 1.91 0.18 71 1010.3
20260506145427 13 208 0.0 9.7 0.00 1.91 0.18 70 1010.2
20260506144436 14 309 6.4 11.3 0.00 1.91 0.18 67 1010.1
20260506143911 14 321 3.2 9.7 0.00 1.91 0.18 70 1010.1
20260506143424 13 319 1.6 9.7 0.00 1.91 0.18 71 1010.0
20260506142936 13 248 3.2 11.3 0.00 1.91 0.18 70 1010.0
20260506142416 13 270 4.8 11.3 0.00 1.91 0.18 70 1010.0
20260506141928 14 352 3.2 8.0 0.00 1.91 0.18 71 1010.1
20260506141426 14 8 0.0 8.0 0.00 1.91 0.18 69 1010.0
20260506140929 14 326 1.6 8.0 0.00 1.91 0.18 73 1010.0
20260506135913 14 326 3.2 14.5 0.00 1.91 0.18 73 1010.1
20260506135425 14 208 4.8 14.5 0.00 1.91 0.18 72 1010.0
20260506134911 14 239 6.4 12.9 0.00 1.91 0.18 70 1010.0
20260506134443 14 309 1.6 8.0 0.00 1.91 0.18 72 1010.0
20260506133913 14 211 1.6 6.4 0.00 1.91 0.18 73 1010.0
20260506133425 14 223 1.6 4.8 0.00 1.91 0.18 73 1009.9
20260506132927 13 240 1.6 8.0 0.00 1.91 0.18 72 1010.0
20260506132419 13 306 0.0 8.0 0.00 1.91 0.18 71 1010.0
20260506131911 13 203 3.2 9.7 0.00 1.91 0.18 73 1010.0
20260506131425 13 224 3.2 9.7 0.00 1.91 0.18 72 1010.0
20260506130939 13 181 1.6 6.4 0.00 1.91 0.18 74 1009.9
20260506130416 13 278 1.6 6.4 0.00 1.91 0.18 75 1009.9
20260506125929 13 348 1.6 6.4 0.00 1.91 0.18 73 1009.9
20260506125438 13 319 1.6 3.2 0.00 1.91 0.18 73 1009.8
20260506124951 13 311 0.0 3.2 0.00 1.91 0.18 75 1009.8
20260506124412 13 335 1.6 4.8 0.00 1.91 0.18 74 1009.8
20260506123924 13 264 1.6 4.8 0.00 1.91 0.18 74 1009.8
20260506123430 13 276 0.0 3.2 0.00 1.91 0.18 77 1009.8
20260506122927 13 174 0.0 6.4 0.00 1.91 0.18 77 1009.8
20260506122440 12 208 0.0 6.4 0.00 1.91 0.18 76 1009.9
20260506121931 12 252 0.0 6.4 0.00 1.91 0.18 76 1009.9
20260506121415 13 295 3.2 8.0 0.00 1.91 0.18 74 1009.9
20260506120927 13 306 3.2 8.0 0.00 1.91 0.18 79 1009.9
20260506120411 13 305 1.6 6.4 0.00 1.91 0.18 78 1009.9
20260506115915 12 193 0.0 4.8 0.00 1.91 0.18 79 1009.9
20260506115426 12 189 0.0 6.4 0.00 1.91 0.18 79 1009.8
20260506114940 12 339 1.6 6.4 0.00 1.91 0.18 79 1009.8
20260506114423 12 16 1.6 4.8 0.00 1.91 0.18 78 1009.8
20260506113916 12 319 0.0 6.4 0.00 1.91 0.18 78 1009.8
20260506113418 12 185 1.6 6.4 0.00 1.91 0.18 79 1009.9
20260506112911 12 189 1.6 3.2 0.00 1.91 0.18 82 1009.9
20260506112424 12 198 0.0 3.2 0.00 1.91 0.18 84 1009.8
20260506111955 12 120 0.0 6.4 0.00 1.91 0.18 85 1009.9
20260506111418 12 176 0.0 6.4 0.00 1.91 0.18 85 1009.9
20260506110929 12 212 1.6 4.8 0.00 1.91 0.18 84 1009.8
20260506110434 12 184 0.0 4.8 0.00 1.91 0.18 85 1009.9
20260506105913 11 205 1.6 9.7 0.00 1.91 0.18 84 1009.9
20260506105424 12 229 0.0 6.4 0.00 1.91 0.18 85 1009.9
20260506104935 12 207 1.6 6.4 0.00 1.91 0.18 85 1010.0
20260506104420 12 207 1.6 6.4 0.00 1.91 0.18 86 1010.0
20260506103931 11 245 3.2 6.4 0.00 1.91 0.18 85 1010.1
20260506103424 11 248 1.6 8.0 0.00 1.91 0.18 86 1010.1
20260506102958 11 153 3.2 8.0 0.00 1.91 0.18 87 1010.0
20260506102422 11 233 3.2 8.0 0.00 1.91 0.18 89 1010.0
20260506101914 11 193 0.0 6.4 0.00 1.91 0.18 90 1010.0
20260506101418 11 325 1.6 6.4 0.00 1.91 0.18 90 1010.0
20260506100930 11 274 1.6 4.8 0.00 1.91 0.18 91 1010.0
20260506100413 10 327 1.6 4.8 0.00 1.91 0.18 90 1010.0
20260506095917 10 230 0.0 3.2 0.00 1.91 0.18 91 1010.0
20260506095430 10 208 0.0 4.8 0.00 1.91 0.18 91 1010.0
20260506094924 10 225 0.0 8.0 0.00 1.91 0.18 91 1010.0
20260506094427 10 211 1.6 8.0 0.00 1.91 0.18 91 1010.0
20260506093918 10 325 1.6 6.4 0.00 1.91 0.18 91 1010.0
20260506093431 10 317 0.0 9.7 0.00 1.91 0.18 93 1009.9
20260506092911 10 214 3.2 9.7 0.00 1.91 0.18 92 1009.8
20260506092421 10 192 0.0 9.7 0.00 1.91 0.18 93 1009.8
20260506091924 10 316 3.2 9.7 0.00 1.91 0.18 93 1009.9
20260506091418 10 148 1.6 8.0 0.00 1.91 0.18 93 1009.8
20260506090931 10 215 1.6 8.0 0.00 1.91 0.18 93 1009.8
20260506090435 10 217 0.0 6.4 0.00 1.91 0.18 94 1009.8
20260506085918 9 311 0.0 4.8 0.00 1.91 0.18 94 1009.8
20260506085412 9 294 1.6 4.8 0.00 1.91 0.18 94 1009.7
20260506084924 9 286 0.0 6.4 0.00 1.91 0.18 94 1009.6
20260506084417 9 292 3.2 8.0 0.00 1.91 0.18 94 1009.6
20260506083930 9 304 1.6 8.0 0.00 1.91 0.18 94 1009.6
20260506083435 9 302 1.6 6.4 0.00 1.91 0.18 94 1009.5
20260506082929 8 308 1.6 6.4 0.00 1.91 0.18 94 1009.5
20260506082422 8 317 1.6 6.4 0.00 1.91 0.18 94 1009.5
20260506081924 8 316 1.6 6.4 0.00 1.91 0.18 94 1009.5
20260506081416 8 302 3.2 6.4 0.10 1.91 0.18 94 1009.4
20260506080930 8 325 0.0 6.4 0.10 1.91 0.18 94 1009.4
20260506080428 8 300 1.6 6.4 0.10 1.91 0.18 94 1009.3
20260506073420 8 290 0.0 6.4 0.10 1.91 0.18 94 1009.2
20260506072913 8 214 0.0 6.4 0.10 1.91 0.18 94 1009.2
20260506072447 8 278 1.6 8.0 0.10 1.91 0.18 93 1009.1
20260506071934 8 304 1.6 8.0 0.10 1.91 0.18 93 1009.1
20260506071419 8 305 1.6 4.8 0.00 1.80 0.15 93 1009.1
20260506070942 8 303 1.6 4.8 0.00 1.80 0.15 93 1009.0
20260506070429 8 316 1.6 4.8 0.00 1.80 0.15 93 1009.0
20260506062429 -17 0.0 0.0 0.00 1.80 0.15 1008.8
20260506061937 -17 0.0 0.0 0.00 1.80 0.15 1008.8
20260506061419 -17 0.0 0.0 0.00 1.80 0.15 1008.8
20260506060912 -17 0.0 0.0 0.00 1.80 0.15 1008.7
20260506060417 -17 0.0 0.0 0.00 1.80 0.15 1008.8
20260506050925 -17 0.0 0.0 0.00 1.80 0.15 1008.7
20260506050430 -17 0.0 0.0 0.00 1.80 0.15 1008.7
20260506044943 -17 0.0 0.0 0.00 1.80 0.15 1008.7
20260506044436 -17 0.0 0.0 0.00 1.80 0.15 1008.6
20260506043920 -17 0.0 0.0 0.00 1.80 0.15 1008.6
20260506043434 -17 0.0 0.0 0.00 1.80 0.15 1008.6
20260506042914 -17 0.0 0.0 0.00 1.80 0.15 1008.6
20260506042511 -17 0.0 0.0 0.00 1.80 0.15 1008.6
20260506041920 -17 0.0 0.0 0.00 1.80 0.15 1008.6
20260506041433 -17 0.0 0.0 0.00 1.80 0.15 1008.5
20260506040920 -17 0.0 0.0 0.00 1.80 0.15 1008.6
20260506040428 -17 0.0 0.0 0.00 1.80 0.15 1008.6
20260506040001 -17 0.0 0.0 0.00 1.80 0.15 1008.6
20260506035420 -17 0.0 0.0 0.10 1.80 0.15 1008.6
20260506034925 -17 0.0 0.0 0.10 1.80 0.15 1008.6
20260506034418 -17 0.0 0.0 0.10 1.80 0.15 1008.6
20260506033437 -17 0.0 0.0 0.10 1.80 0.15 1008.6
20260506032950 -17 0.0 0.0 0.10 1.80 0.15 1008.7
20260506032414 -17 0.0 0.0 0.10 1.80 0.15 1008.7
20260506031924 -17 0.0 0.0 0.10 1.80 0.15 1008.7
20260506031458 7 280 1.6 3.2 0.10 1.80 0.15 88 1008.7
20260506030915 7 280 1.6 3.2 0.10 1.80 0.15 88 1008.7
20260506030422 7 311 1.6 3.2 0.10 1.80 0.15 88 1008.8
20260506025957 8 326 0.0 1.6 0.10 1.80 0.15 89 1008.8
20260506025450 8 350 0.0 1.6 0.00 1.70 0.15 89 1008.9
20260506024912 8 271 0.0 6.4 0.00 1.70 0.15 88 1008.8
20260506024426 8 300 1.6 6.4 0.00 1.70 0.15 88 1008.9
20260506023941 8 267 1.6 4.8 0.00 1.70 0.15 89 1008.9
20260506023425 8 240 1.6 4.8 0.00 1.70 0.15 88 1008.9
20260506022937 8 300 1.6 4.8 0.00 1.70 0.15 88 1008.9
20260506022422 8 304 3.2 6.4 0.00 1.70 0.15 88 1008.9
20260506021936 8 299 0.0 4.8 0.00 1.70 0.15 89 1009.0
20260506021447 8 283 1.6 6.4 0.00 1.70 0.15 88 1009.0
20260506020931 8 303 1.6 6.4 0.00 1.70 0.15 88 1008.9
20260506020417 8 304 0.0 4.8 0.00 1.70 0.15 89 1008.9
20260506015926 8 289 0.0 3.2 0.00 1.70 0.15 89 1009.0
20260506015430 8 311 0.0 3.2 0.00 1.70 0.15 89 1008.9
20260506014943 8 326 0.0 4.8 0.00 1.70 0.15 89 1009.0
20260506014416 8 319 0.0 4.8 0.00 1.70 0.15 88 1008.9
20260506013916 8 302 1.6 4.8 0.00 1.70 0.15 88 1008.9
20260506013429 8 284 1.6 4.8 0.00 1.70 0.15 88 1009.0
20260506012922 8 8 1.6 4.8 0.00 1.70 0.15 89 1008.9
20260506012413 8 300 0.0 4.8 0.00 1.70 0.15 89 1009.0
20260506011928 8 295 1.6 4.8 0.00 1.70 0.15 89 1009.0
20260506011522 8 315 1.6 4.8 0.00 1.70 0.15 90 1009.0
20260506010955 8 276 0.0 4.8 0.00 1.70 0.15 90 1009.0
20260506010459 8 287 0.0 1.6 0.00 1.70 0.15 91 1009.0
20260506005930 8 274 0.0 1.6 0.00 1.70 0.15 91 1009.0
20260506005417 8 261 0.0 1.6 0.00 1.70 0.15 91 1009.1
20260506004929 8 293 0.0 1.6 0.00 1.70 0.15 91 1009.1
20260506004413 8 300 0.0 1.6 0.00 1.70 0.15 91 1009.1
20260506003946 8 300 0.0 1.6 0.00 1.70 0.15 91 1009.1
20260506003438 8 307 0.0 3.2 0.10 1.70 0.15 91 1009.2
20260506002921 8 283 0.0 4.8 0.10 1.70 0.15 91 1009.2
20260506002435 8 293 1.6 4.8 0.10 1.70 0.15 92 1009.3
20260506001928 8 311 0.0 3.2 0.10 1.70 0.15 92 1009.3
20260506001442 8 302 0.0 3.2 0.20 1.70 0.15 92 1009.3
20260506000954 8 304 0.0 3.2 0.20 1.70 0.15 91 1009.4
20260506000440 8 276 0.0 4.8 0.20 1.70 0.15 91 1009.5
20260505235932 8 304 1.6 4.8 0.20 1.70 0.15 91 1009.5
20260505235415 8 305 0.0 3.2 0.30 1.80 0.15 91 1009.5
20260505234929 9 309 0.0 3.2 0.30 1.80 0.15 91 1009.5
20260505234442 9 314 0.0 6.4 0.41 1.80 0.15 91 1009.6
20260505233929 9 311 1.6 4.8 0.41 1.80 0.15 92 1009.6
20260505233412 9 305 1.6 6.4 0.30 1.70 0.13 92 1009.5
20260505232926 9 302 1.6 6.4 0.41 1.70 0.13 92 1009.6
20260505232438 9 32 1.6 6.4 0.41 1.70 0.13 92 1009.6
20260505231923 9 279 1.6 6.4 0.51 1.70 0.13 92 1009.6
20260505231435 9 314 0.0 4.8 0.41 1.60 0.10 92 1009.6
20260505230919 9 295 1.6 4.8 0.41 1.60 0.10 92 1009.6
20260505230434 9 304 0.0 4.8 0.51 1.60 0.10 92 1009.7
20260505225947 9 307 1.6 4.8 0.41 1.50 0.08 92 1009.7
20260505225418 9 311 1.6 4.8 0.41 2.11 0.08 92 1009.7
20260505224920 9 270 0.0 4.8 0.41 2.11 0.08 92 1009.8
20260505224414 9 316 1.6 4.8 0.41 2.01 0.05 92 1009.8
20260505223927 9 309 3.2 4.8 0.41 2.01 0.05 92 1009.8
20260505223501 9 312 1.6 6.4 0.30 1.91 0.05 92 1009.8
20260505222922 10 330 1.6 6.4 0.41 1.91 0.05 92 1009.8
20260505222416 10 311 0.0 6.4 0.41 1.91 0.05 92 1009.8
20260505221917 10 314 1.6 8.0 0.30 1.80 0.03 92 1009.7
20260505221432 10 299 1.6 8.0 0.41 1.80 0.03 92 1009.8
20260505220915 10 328 1.6 8.0 0.41 1.80 0.03 92 1009.7
20260505220418 10 323 3.2 8.0 0.30 1.70 0.00 93 1009.7
20260505215929 10 312 1.6 4.8 0.41 1.70 0.00 93 1009.7
20260505215440 10 315 0.0 6.4 0.41 1.91 0.33 94 1009.8
20260505214925 10 323 1.6 6.4 0.41 1.91 0.33 94 1009.8
20260505214418 10 274 0.0 0.0 0.30 1.80 0.33 94 1009.8
20260505213929 10 274 0.0 0.0 0.41 1.80 0.33 94 1009.9
20260505213430 10 274 0.0 1.6 0.41 1.80 0.33 94 1009.8
20260505212915 10 274 0.0 1.6 0.30 1.70 0.30 94 1009.8
20260505212428 10 270 0.0 1.6 0.30 1.70 0.30 94 1009.8
20260505211939 10 270 0.0 3.2 0.41 1.70 0.30 94 1009.8
20260505211424 10 4 0.0 1.6 0.30 1.60 0.28 94 1009.9
20260505210937 10 19 0.0 1.6 0.30 1.60 0.28 94 1009.9
20260505210422 10 288 0.0 0.0 0.30 1.50 0.25 94 1009.8
20260505205936 10 345 0.0 0.0 0.30 1.50 0.25 93 1009.9
20260505205419 10 345 0.0 0.0 0.30 1.70 0.25 93 1009.9
20260505204933 10 345 0.0 0.0 0.30 1.70 0.25 93 1009.9
20260505204417 10 345 0.0 0.0 0.30 1.60 0.23 93 1009.9
20260505203930 10 345 0.0 0.0 0.30 1.60 0.23 93 1009.9
20260505203415 10 345 0.0 0.0 0.30 1.60 0.23 93 1010.0
20260505202926 10 345 0.0 0.0 0.41 1.60 0.23 93 1009.9
20260505202419 10 345 0.0 0.0 0.41 1.60 0.23 93 1009.9
20260505201946 10 345 0.0 0.0 0.30 1.50 0.23 93 1009.9
20260505201429 10 345 0.0 0.0 0.30 1.50 0.23 93 1009.9
20260505200931 10 11 0.0 0.0 0.41 1.50 0.23 93 1009.9
20260505200438 10 11 0.0 0.0 0.30 1.40 0.20 93 1009.8
20260505195921 10 11 0.0 0.0 0.30 1.40 0.20 93 1009.8